[[{"header":{"parameterUnit":"m.s-1","parameterCategory":1,"la1":30.2991,"la2":30.254,"lo1":-89.0895,"lo2":-89.0444,"dy":0.0017,"dx":0.0017,"nx":28,"ny":28,"refTime":"2024-10-14T03:00:00:Z","depth":0,"parameterNumber":2,"parameterNumberName":"U-component_of_WINDS"},"data":[0,0,0,0,0,0,0,0,0,0,0,0,0,0,0,0,0,0,0,0,0,0,0,0,0,0,0,0,0,0,0,0,0,0,0,0,0,0,0,0,0,0,0,0,0,0,0,0,0,0,0,0,0,0,0,0,0,0,-2.2412,-2.2413,0,-2.2504,-2.2505,-2.2506,-2.2477,-2.2475,-2.2473,-2.2471,-2.2564,-2.2568,-2.2573,0,0,0,0,0,0,0,0,0,0,0,0,0,-2.2209,-2.2213,-2.2412,-2.2413,-2.2414,-2.2504,-2.2505,-2.2506,-2.2477,-2.2475,-2.2473,-2.247,-2.2563,-2.2568,-2.2573,0,0,0,0,0,0,0,0,0,0,0,0,0,-2.2299,-2.2214,-2.2412,-2.2411,-2.2411,-2.2503,-2.2505,-2.2506,-2.2478,-2.2475,-2.2472,-2.2469,-2.2561,-2.2567,-2.2574,-2.2672,0,0,-2.2593,-2.2596,0,0,0,0,0,0,0,0,-2.2294,-2.2306,-2.241,-2.2411,-2.2412,-2.2476,-2.2467,-2.2562,-2.2479,-2.2453,-2.2471,-2.2468,-2.2537,-2.2545,-2.2569,-2.2676,-2.268,-2.2594,-2.2598,-2.2601,-2.2602,0,0,0,0,0,0,0,-2.2287,-2.2302,-2.2448,-2.2411,-2.2413,-2.2405,-2.2414,-2.2485,-2.251,-2.2455,-2.2453,-2.2464,-2.2537,-2.2563,-2.2571,-2.2681,-2.2594,-2.2599,-2.2603,-2.2606,-2.2873,-2.2876,0,0,0,0,0,0,-2.2281,-2.2297,-2.2445,-2.2451,-2.2344,-2.2411,-2.2421,-2.2458,-2.2509,-2.2514,-2.2467,-2.2462,-2.2553,-2.2563,-2.2574,-2.2692,-2.26,-2.2606,-2.261,-2.2869,-2.2873,-2.2877,0,0,0,0,0,0,-2.2276,-2.2294,-2.2441,-2.2374,-2.2392,-2.2417,-2.2459,-2.2462,-2.2487,-2.2518,-2.2522,-2.2488,-2.2551,-2.2565,-2.2648,-2.2695,-2.2609,-2.2615,-2.2866,-2.2871,-2.2875,-2.293,0,0,0,0,0,0,-2.2271,-2.2293,-2.2331,-2.2375,-2.2395,-2.2515,-2.2462,-2.2466,-2.2499,-2.2494,-2.254,-2.2545,-2.255,-2.2638,-2.2654,-2.2703,-2.262,-2.2862,-2.2868,-2.2874,-2.2924,-2.2936,-2.2946,0,0,0,0,0,-2.2264,-2.2343,-2.2333,-2.2351,-2.2444,-2.2517,-2.2529,-2.2535,-2.2503,-2.2541,-2.256,-2.2543,-2.2687,-2.2647,-2.2664,-2.2716,-2.2859,-2.2866,-2.2873,-2.2919,-2.2934,-2.2946,0,0,0,0,0,0,-2.2304,-2.2349,-2.2339,-2.2434,-2.2472,-2.2512,-2.2561,-2.255,-2.2598,-2.2591,-2.2595,-2.2606,-2.269,-2.2711,-2.2665,-2.2813,-2.2768,-2.2779,-2.2797,-2.2811,-2.2822,-2.2816,-2.2626,0,0,0,0,0,-2.2324,-2.2381,-2.2416,-2.2497,-2.2517,-2.2536,-2.2568,-2.2568,-2.2608,-2.2624,-2.2649,-2.2688,-2.2741,-2.2777,-2.2828,-2.2926,-2.2935,-2.297,-2.2981,-2.299,-2.3,-2.3053,-2.3069,-2.2901,-2.2901,-2.2901,0,0,-2.2366,-2.2398,-2.2433,-2.2506,-2.2536,-2.2594,-2.2549,-2.2613,-2.2656,-2.2633,-2.2713,-2.2733,-2.2776,-2.2867,-2.2908,-2.2886,-2.3048,-2.2999,-2.3006,-2.3011,-2.3062,-2.3078,-2.3092,-2.2906,-2.2905,-2.2904,0,0,-2.2473,-2.2502,-2.2573,-2.2604,-2.2649,-2.2661,-2.2677,-2.2719,-2.2732,-2.2812,-2.2796,-2.2846,-2.2939,-2.297,-2.2998,-2.3115,-2.3101,-2.3131,-2.319,-2.3242,-2.3255,-2.3267,-2.3309,-2.3324,-2.3141,-2.3141,-2.3141,0,-2.252,-2.2608,-2.2611,-2.2676,-2.2708,-2.269,-2.2761,-2.279,-2.285,-2.2872,-2.2847,-2.2962,-2.299,-2.3087,-2.3116,-2.3139,-2.3158,-2.3127,-2.3253,-2.3265,-2.3276,-2.3316,-2.3332,-2.3144,-2.3144,-2.3143,-2.3143,0,-2.2663,-2.2724,-2.2775,-2.2834,-2.2872,-2.2939,-2.2952,-2.2989,-2.2986,-2.3,-2.3081,-2.3113,-2.3171,-2.3193,-2.319,-2.329,-2.3276,-2.3252,-2.3207,-2.3295,-2.3333,-2.3349,-2.3149,-2.3148,-2.3147,-2.3146,0,0,-2.2801,-2.2859,-2.2878,-2.2904,-2.2952,-2.2998,-2.3064,-2.3121,-2.3153,-2.3193,-2.3249,-2.3327,-2.3305,-2.3337,-2.3337,-2.3382,-2.3472,-2.3352,-2.3353,-2.3374,-2.3585,-2.3604,-2.3622,-2.3462,-2.3465,-2.3467,-2.3581,0,-2.2913,-2.303,-2.3034,-2.3141,-2.3197,-2.3179,-2.3237,-2.3272,-2.3286,-2.3335,-2.3349,-2.3405,-2.3371,-2.339,-2.3434,-2.3452,-2.3515,-2.3444,-2.3514,-2.3517,-2.3506,-2.3641,-2.3662,-2.3768,-2.3596,-2.3599,-2.3601,0,-2.306,-2.3106,-2.3219,-2.3258,-2.3281,-2.3333,-2.3384,-2.3431,-2.347,-2.3477,-2.3511,-2.3504,-2.3571,-2.3522,-2.3614,-2.3565,-2.3594,-2.3607,-2.3611,-2.3619,-2.3565,-2.3655,-2.3802,-2.3819,-2.3624,-2.3622,-2.362,0,-2.3151,-2.324,-2.3319,-2.3342,-2.3389,-2.3426,-2.3447,-2.3483,-2.3516,-2.356,-2.3581,-2.3632,-2.3661,-2.37,-2.3707,-2.3671,-2.3798,-2.375,-2.3806,-2.3806,-2.3836,-2.3834,-2.3992,-2.3851,-2.3851,-2.3851,-2.3851,0,-2.3277,-2.3347,-2.3361,-2.341,-2.3487,-2.3489,-2.3566,-2.3584,-2.3615,-2.3667,-2.3653,-2.3701,-2.3706,-2.3756,-2.3761,-2.3836,-2.3848,-2.3856,-2.3857,-2.3858,-2.3858,-2.3878,-2.3872,-2.3855,-2.3854,-2.3853,-2.3853,0,-2.3392,-2.3404,-2.349,-2.3527,-2.3537,-2.3593,-2.3624,-2.367,-2.3682,-2.3747,-2.3762,-2.3781,-2.3839,-2.3848,-2.3916,-2.3919,-2.4009,-2.4001,-2.3997,-2.3996,-2.4052,-2.4047,-2.423,-2.4254,-2.4096,-2.4098,-2.4099,0,-2.3473,-2.3526,-2.3569,-2.3602,-2.3626,-2.368,-2.3714,-2.3717,-2.3752,-2.3799,-2.384,-2.3896,-2.3941,-2.4033,-2.4052,-2.4103,-2.4098,-2.4158,-2.4106,-2.4105,-2.41,-2.4098,-2.4103,-2.4169,-2.4171,-2.4172,-2.4173,0,-2.3615,-2.3618,-2.3667,-2.3719,-2.376,-2.38,-2.3838,-2.3866,-2.3874,-2.3915,-2.3974,-2.4008,-2.4077,-2.4133,-2.4183,-2.4203,-2.419,-2.4189,-2.4205,-2.4208,-2.4204,-2.4208,-2.4026,-2.4186,-2.4184,-2.4184,-2.4183,-2.4182,-2.3716,-2.3763,-2.38,-2.3856,-2.3884,-2.392,-2.3965,-2.3983,-2.4032,-2.4088,-2.4086,-2.4151,-2.4186,-2.4253,-2.4276,-2.4326,-2.4307,-2.4329,-2.4335,-2.4342,-2.4347,-2.4194,-2.4335,-2.4335,-2.4334,-2.4334,-2.4334,0,-2.3859,-2.3882,-2.3932,-2.3986,-2.4029,-2.4012,-2.4053,-2.409,-2.4147,-2.4182,-2.4226,-2.4293,-2.4346,-2.4369,-2.4421,-2.4456,-2.4451,-2.447,-2.4468,-2.4473,-2.4361,-2.4343,-2.4473,-2.4473,-2.4473,-2.4473,-2.4473,-2.4473,-2.3938,-2.4017,-2.4024,-2.4115,-2.4137,-2.42,-2.4225,-2.4258,-2.4285,-2.4361,-2.4405,-2.4419,-2.4449,-2.4502,-2.455,-2.4555,-2.4576,-2.4597,-2.46,-2.4495,-2.4481,-2.4468,-2.4451,-2.4601,-2.4602,-2.4708,-2.4709,-2.471]},{"header":{"parameterUnit":"m.s-1","parameterCategory":1,"la1":30.2991,"la2":30.254,"lo1":-89.0895,"lo2":-89.0444,"dy":0.0017,"dx":0.0017,"nx":28,"ny":28,"refTime":"2024-10-14T03:00:00:Z","depth":0,"parameterNumber":3,"parameterNumberName":"V-component_of_WINDS"},"data":[0,0,0,0,0,0,0,0,0,0,0,0,0,0,0,0,0,0,0,0,0,0,0,0,0,0,0,0,0,0,0,0,0,0,0,0,0,0,0,0,0,0,0,0,0,0,0,0,0,0,0,0,0,0,0,0,0,0,-5.3896,-5.3897,0,-5.3923,-5.3924,-5.3924,-5.3842,-5.384,-5.3837,-5.3835,-5.3859,-5.3862,-5.3865,0,0,0,0,0,0,0,0,0,0,0,0,0,-5.377,-5.3773,-5.3896,-5.3897,-5.3897,-5.3923,-5.3924,-5.3924,-5.3842,-5.3839,-5.3836,-5.3834,-5.3858,-5.3861,-5.3865,0,0,0,0,0,0,0,0,0,0,0,0,0,-5.3814,-5.3774,-5.3896,-5.386,-5.3857,-5.3923,-5.3924,-5.3924,-5.3843,-5.3839,-5.3836,-5.3832,-5.3857,-5.3861,-5.3865,-5.3968,0,0,-5.3879,-5.3881,0,0,0,0,0,0,0,0,-5.3811,-5.3818,-5.3865,-5.3862,-5.3859,-5.3876,-5.3888,-5.3939,-5.3844,-5.3848,-5.3835,-5.383,-5.3867,-5.3871,-5.3884,-5.3969,-5.397,-5.3879,-5.3882,-5.3884,-5.3885,0,0,0,0,0,0,0,-5.3808,-5.3817,-5.3907,-5.3865,-5.3862,-5.384,-5.3842,-5.3897,-5.3878,-5.3847,-5.3842,-5.3846,-5.3865,-5.388,-5.3884,-5.397,-5.3879,-5.3883,-5.3886,-5.3888,-5.414,-5.4143,0,0,0,0,0,0,-5.3811,-5.3815,-5.3906,-5.3908,-5.3826,-5.3846,-5.3848,-5.3874,-5.3877,-5.3874,-5.3849,-5.3842,-5.3874,-5.3879,-5.3884,-5.4004,-5.3884,-5.3888,-5.3891,-5.4136,-5.4141,-5.4145,0,0,0,0,0,0,-5.3808,-5.382,-5.3905,-5.386,-5.3869,-5.3852,-5.3882,-5.3876,-5.3891,-5.3879,-5.3875,-5.3868,-5.3871,-5.3878,-5.3948,-5.4003,-5.389,-5.3894,-5.4131,-5.4137,-5.4143,-5.4244,0,0,0,0,0,0,-5.3805,-5.3819,-5.3859,-5.3861,-5.3872,-5.3969,-5.3885,-5.388,-5.3899,-5.389,-5.3895,-5.3892,-5.3869,-5.3941,-5.3952,-5.4008,-5.3898,-5.4126,-5.4134,-5.4141,-5.4236,-5.4253,-5.4268,0,0,0,0,0,-5.3801,-5.3886,-5.3861,-5.3873,-5.3921,-5.3973,-5.3979,-5.395,-5.3904,-5.3943,-5.3935,-5.3892,-5.3996,-5.3949,-5.396,-5.4018,-5.4122,-5.4131,-5.414,-5.4229,-5.425,-5.4267,0,0,0,0,0,0,-5.3889,-5.3885,-5.3858,-5.3947,-5.3961,-5.3959,-5.4007,-5.3974,-5.4,-5.399,-5.3953,-5.3955,-5.4031,-5.4031,-5.398,-5.4117,-5.4051,-5.4063,-5.4114,-5.4134,-5.415,-5.4148,-5.3901,0,0,0,0,0,-5.3919,-5.3963,-5.3957,-5.4035,-5.4044,-5.4025,-5.4046,-5.4023,-5.4036,-5.4041,-5.4038,-5.4051,-5.4086,-5.411,-5.4142,-5.4235,-5.4235,-5.4281,-5.4296,-5.431,-5.432,-5.4369,-5.4389,-5.4175,-5.4175,-5.4174,0,0,-5.3981,-5.3985,-5.4014,-5.4053,-5.4061,-5.4106,-5.403,-5.4081,-5.4113,-5.4048,-5.4114,-5.4113,-5.4124,-5.4206,-5.4242,-5.4209,-5.4379,-5.4321,-5.4332,-5.4335,-5.4381,-5.4401,-5.4419,-5.4181,-5.418,-5.4179,0,0,-5.4117,-5.4125,-5.4191,-5.4201,-5.4215,-5.4201,-5.4217,-5.4221,-5.4217,-5.4283,-5.4235,-5.4273,-5.4334,-5.4344,-5.4358,-5.4498,-5.4459,-5.4509,-5.4592,-5.464,-5.4657,-5.4672,-5.4722,-5.474,-5.4519,-5.452,-5.452,0,-5.4192,-5.4259,-5.4229,-5.4283,-5.4301,-5.4245,-5.4312,-5.4322,-5.4345,-5.4358,-5.4321,-5.4397,-5.4401,-5.4485,-5.4519,-5.4532,-5.4548,-5.4508,-5.4658,-5.4672,-5.4685,-5.4732,-5.4751,-5.4526,-5.4525,-5.4524,-5.4524,0,-5.4351,-5.4398,-5.4449,-5.4474,-5.4498,-5.4558,-5.4535,-5.4563,-5.4538,-5.4528,-5.4595,-5.4598,-5.4629,-5.4647,-5.4623,-5.4728,-5.4707,-5.4664,-5.4597,-5.4713,-5.4756,-5.4774,-5.4534,-5.4532,-5.453,-5.4529,0,0,-5.4543,-5.4551,-5.4571,-5.4581,-5.4592,-5.4627,-5.4684,-5.4715,-5.474,-5.4757,-5.4803,-5.4857,-5.4817,-5.4833,-5.4809,-5.4851,-5.4961,-5.4803,-5.4803,-5.4832,-5.5076,-5.5108,-5.513,-5.4936,-5.4939,-5.4942,-5.5075,0,-5.4677,-5.4776,-5.475,-5.4848,-5.489,-5.4838,-5.4887,-5.4899,-5.4891,-5.4925,-5.4916,-5.4954,-5.49,-5.4908,-5.4948,-5.494,-5.501,-5.493,-5.4977,-5.498,-5.4976,-5.5152,-5.5186,-5.5312,-5.5092,-5.5095,-5.5097,0,-5.4847,-5.4872,-5.4975,-5.4979,-5.4996,-5.5041,-5.5067,-5.5101,-5.5112,-5.5103,-5.5121,-5.5088,-5.5143,-5.5076,-5.515,-5.5096,-5.5114,-5.5113,-5.5117,-5.512,-5.5045,-5.516,-5.5351,-5.537,-5.5123,-5.5121,-5.5119,0,-5.4977,-5.5037,-5.5106,-5.5116,-5.5123,-5.5155,-5.5159,-5.5167,-5.5188,-5.521,-5.5223,-5.5252,-5.5268,-5.529,-5.5266,-5.5219,-5.5343,-5.5274,-5.5337,-5.5338,-5.5365,-5.5364,-5.5562,-5.5378,-5.5377,-5.5377,-5.5377,0,-5.5129,-5.5194,-5.5164,-5.5207,-5.5277,-5.5246,-5.5316,-5.5314,-5.5321,-5.5361,-5.5317,-5.5356,-5.5321,-5.5356,-5.5337,-5.5402,-5.5409,-5.5403,-5.5397,-5.5407,-5.5408,-5.5418,-5.5408,-5.5382,-5.5381,-5.538,-5.5379,0,-5.5287,-5.5269,-5.5341,-5.5341,-5.5343,-5.5395,-5.5394,-5.5433,-5.5422,-5.5473,-5.5483,-5.5466,-5.5505,-5.5483,-5.5522,-5.551,-5.5593,-5.5575,-5.559,-5.5585,-5.5649,-5.5643,-5.586,-5.5887,-5.5686,-5.5688,-5.5689,0,-5.5385,-5.5434,-5.5439,-5.5464,-5.5471,-5.551,-5.5531,-5.5502,-5.5526,-5.5542,-5.5579,-5.5614,-5.564,-5.5705,-5.5695,-5.5725,-5.5707,-5.5781,-5.5711,-5.572,-5.5708,-5.5705,-5.571,-5.5795,-5.5798,-5.58,-5.5801,0,-5.5561,-5.555,-5.5583,-5.5613,-5.5639,-5.5661,-5.5679,-5.5701,-5.5672,-5.57,-5.574,-5.5761,-5.5802,-5.5837,-5.5863,-5.5865,-5.5828,-5.5824,-5.584,-5.585,-5.5856,-5.5853,-5.5628,-5.5819,-5.5817,-5.5816,-5.5815,-5.5814,-5.5691,-5.5732,-5.5743,-5.578,-5.5791,-5.5809,-5.5845,-5.5839,-5.5872,-5.5904,-5.5884,-5.5931,-5.594,-5.597,-5.5978,-5.6013,-5.5983,-5.6006,-5.6012,-5.6018,-5.6027,-5.5851,-5.6017,-5.6017,-5.6016,-5.6016,-5.6016,0,-5.5865,-5.5869,-5.5904,-5.5931,-5.5961,-5.5925,-5.5943,-5.5969,-5.6011,-5.6024,-5.6051,-5.6096,-5.613,-5.6123,-5.6154,-5.6183,-5.6167,-5.6192,-5.619,-5.6191,-5.6052,-5.6035,-5.6205,-5.6205,-5.6205,-5.6205,-5.6205,-5.6205,-5.5959,-5.6026,-5.6016,-5.6087,-5.609,-5.6137,-5.615,-5.6166,-5.6175,-5.6228,-5.6257,-5.6252,-5.6257,-5.6287,-5.6316,-5.6313,-5.6326,-5.6358,-5.6348,-5.6219,-5.62,-5.6183,-5.6166,-5.6361,-5.6361,-5.6484,-5.6485,-5.6486]}]]